#timestamp,LO_Frequency,Hit,StdDev 
1628676015.1,286047002.5,N
1628676035.9,286046998.1,N
1628676055.7,286046997.4,N
1628676075.6,286046998.0,N
1628676095.4,286046997.8,N
1628676115.2,286046997.4,N
1628676135.1,286046997.0,N
1628676136.0,286046997.0,N
1628676155.8,286046999.4,N
1628676175.6,286046999.1,N
1628676195.5,286046998.7,N
1628676215.3,286046998.3,N
1628676235.2,286046999.0,N
1628676255.9,286046996.6,N
1628676275.7,286046996.8,N
1628676295.6,286046998.5,N
1628676315.4,286046998.2,N
1628676335.2,286046998.3,N
1628676355.1,286047000.9,N
1628676356.0,286047000.9,N
1628676375.8,286047000.0,N
1628676395.7,286047000.5,N
1628676415.5,286046998.2,N
1628676435.3,286046998.5,N
1628676455.2,286047000.2,N
1628676475.9,286047000.7,N
1628676495.7,286047000.8,N
1628676515.6,286047000.3,N
1628676535.4,286047000.5,N
1628676555.3,286047001.4,N
1628676575.1,286047001.5,N
1628676576.0,286047001.5,N
1628676595.8,286047001.6,N
1628676615.7,286047001.9,N
1628676635.5,286047001.5,N
1628676655.3,286046999.7,N
1628676675.2,286047000.3,N
1628676695.0,286047002.6,N
1628676695.9,286047002.6,N
1628676715.8,286047001.8,N
1628676735.6,286047002.6,N
1628676755.4,286047003.7,N
1628676775.3,286047002.5,N
1628676795.1,286047002.5,N
1628676815.8,286047000.2,N
1628676835.7,286047002.0,N
1628676855.5,286047002.0,N
1628676875.4,286047002.8,N
1628676895.2,286047001.5,N
1628676915.0,286047002.7,N
1628676915.9,286047002.7,N
1628676935.8,286046999.8,N
1628676955.6,286046999.9,N
1628676975.4,286047000.0,N
1628676995.3,286047002.4,N
1628677015.1,286046999.9,N
1628677035.9,286046998.9,N
1628677055.7,286046998.4,N
1628677075.5,286046998.9,N
1628677095.4,286046998.7,N
1628677115.2,286046998.2,N
1628677135.0,286046998.7,N
1628677136.0,286046998.7,N
1628677155.8,286046998.5,N
1628677175.6,286047001.1,N
1628677195.5,286047000.7,N
1628677215.3,286046998.1,N
1628677235.1,286047000.4,N
1628677255.9,286046999.9,N
1628677275.7,286047000.4,N
1628677295.6,286047000.7,N
1628677315.4,286046996.5,N
1628677335.2,286046997.2,N
1628677355.1,286046995.4,N
1628677356.0,286046995.4,N
1628677375.8,286046995.6,N
1628677395.7,286046995.2,N
1628677415.5,286046996.3,N
1628677435.3,286046994.7,N
1628677455.2,286046994.3,N
1628677475.9,286046994.5,N
1628677495.7,286046994.1,N
1628677515.6,286046994.6,N
1628677535.4,286046992.1,Y
1628677555.3,286046995.7,P
1628677575.1,286046995.6,P
1628677576.0,286046995.6,P
1628677595.8,286046998.0,N
1628677615.7,286046997.7,N
1628677635.5,286046996.5,Y
1628677655.4,286047001.0,P
1628677675.2,286047001.1,N
1628677695.0,286047000.9,N
1628677695.9,286047000.9,N
1628677715.8,286046998.5,N
1628677735.6,286047001.1,N
1628677755.4,286046998.6,N
1628677775.3,286047001.0,N
1628677795.1,286047002.6,N
1628677815.9,286047002.0,N
1628677835.7,286047002.1,N
1628677855.5,286047002.1,N
1628677875.4,286047004.4,N
1628677895.2,286047005.8,Y
1628677915.1,286047003.2,P
1628677916.0,286047003.2,N
1628677935.8,286047003.0,N
1628677955.6,286047001.4,N
1628677975.5,286047002.0,N
1628677995.3,286047000.9,N
1628678015.1,286046998.8,N
1628678035.9,286046999.1,N
1628678055.7,286046999.2,N
1628678075.6,286046999.1,N
1628678095.4,286046996.6,N
1628678115.2,286046997.7,N
1628678135.1,286046995.8,N
1628678136.0,286046995.8,N
1628678155.8,286046995.3,N
1628678175.6,286046995.8,N
1628678195.5,286046997.8,N
1628678215.3,286046995.0,N
1628678235.2,286046997.1,N
1628678255.9,286046999.1,N
1628678275.7,286046998.6,N
1628678295.6,286047000.9,N
1628678315.4,286047000.2,N
1628678335.2,286047000.6,N
1628678355.1,286047002.8,N
1628678356.0,286047002.8,N
1628678375.8,286047001.8,N
1628678395.7,286047004.0,N
1628678415.5,286047003.2,N
1628678435.3,286047002.9,N
1628678455.2,286047003.5,N
1628678475.9,286047003.6,N
1628678495.7,286047003.0,N
1628678515.6,286047006.0,N
1628678535.4,286047005.4,N
1628678555.2,286047005.7,N
1628678575.1,286047004.5,N
1628678576.0,286047004.5,N
1628678595.8,286047005.9,N
1628678615.7,286047007.2,N
1628678635.5,286047006.8,N
1628678655.3,286047005.4,N
1628678675.2,286047005.9,N
1628678695.0,286047005.1,N
1628678695.9,286047005.1,N
1628678715.8,286047003.1,N
1628678735.6,286047005.8,N
1628678755.4,286047005.9,N
1628678775.3,286047005.5,N
1628678795.1,286047003.6,N
1628678815.8,286047003.0,N
1628678835.7,286047002.9,N
1628678855.5,286047005.0,N
1628678875.4,286047005.7,Y
1628678895.2,286047000.8,P
1628678915.0,286047001.0,N
1628678915.9,286047001.0,N
1628678935.8,286046998.3,N
1628678955.6,286047000.8,N
1628678975.4,286046996.5,N
1628678995.3,286046997.4,N
1628679015.1,286046997.4,N
1628679035.9,286046997.4,N
1628679055.7,286046997.8,N
1628679075.5,286046997.0,N
1628679095.4,286046997.4,N
1628679115.2,286046994.9,N
1628679135.0,286046996.6,N
1628679135.9,286046996.6,N
1628679155.8,286046997.2,N
1628679175.6,286046996.2,N
1628679195.5,286046993.4,N
1628679215.3,286046996.4,N
1628679235.1,286046994.6,N
1628679255.9,286046992.0,Y
1628679275.7,286046995.2,P
1628679295.5,286046995.8,P
1628679315.4,286046993.5,P
1628679335.2,286046994.6,Y
1628679355.1,286046998.9,P
1628679356.0,286046998.9,N
1628679375.8,286046999.4,N
1628679395.6,286046996.8,N
1628679415.5,286046997.2,N
1628679435.3,286046996.5,N
1628679455.1,286046999.5,N
1628679475.9,286046998.2,N
1628679495.7,286047001.0,N
1628679515.6,286046998.6,N
1628679535.4,286046998.6,N
1628679555.2,286046998.1,N
1628679575.1,286046999.0,N
1628679576.0,286046999.0,N
1628679595.8,286046996.5,N
